Flag for Germany Past Weather in Mörfelden-Walldorf, Hesse, Germany — Yesterday and Last 2 Weeks

Now
70 °F

Scattered clouds.


Feels Like: 70 °F
Forecast: 55 / 67 °F
Wind: 12 mph from Southwest

Location: Frankfurt-M-Flughafen Airport

Current Time: Jul 1, 2016 at 10:07:40 AM

Latest Report: Jul 1, 2016 at 9:20 AM


Visibility: N/A

Pressure: 30.01 "Hg

Humidity: 73%

Dew Point: 61 °F

Location of Mörfelden-WalldorfLocation

Past Weather in Mörfelden-Walldorf — Graph

°F

Mörfelden-Walldorf Temperature Yesterday

Maximum temperature yesterday: 72 °F (at 1:20 PM)
Minimum temperature yesterday: 57 °F (at 12:20 AM)
Average temperature yesterday: 65 °F

High & Low Weather Summary for the Past Weeks

 TemperatureHumidityPressure
High93 °F (Jun 23, 4:50 PM)100% (Jun 17, 2:20 AM)30.27 "Hg (Jun 17, 2:20 AM)
Low45 °F (Jun 20, 4:50 AM)30% (Jun 23, 4:50 PM)29.59 "Hg (Jun 16, 7:20 PM)
Average65 °F76%30.02 "Hg
* Reported Jun 16 8:20 AM — Jul 1 8:50 AM, Mörfelden-Walldorf, Weather by CustomWeather, © 2016

Note: Actual official high and low records may vary slightly from our data, if they occured in-between our weather recording intervals... More about our weather records

Advertising

Mörfelden-Walldorf Weather History for the Previous 24 Hours

Scroll right to see more
 ConditionsComfort  
Time TempWeatherWind HumidityBarometerVisibility
8:50 AM
Fri, Jul 1
70 °FScattered clouds.10 mph73%30.01 "HgN/A
8:20 AM66 °FPassing clouds.6 mph78%30.01 "HgN/A
7:50 AM64 °FPassing clouds.6 mph83%30.01 "HgN/A
7:20 AM63 °FPassing clouds.6 mph83%30.01 "HgN/A
6:50 AM63 °FSunny.6 mph83%30.01 "Hg10 mi
6:20 AM61 °FSunny.6 mph88%30.01 "Hg10 mi
5:50 AM59 °FPassing clouds.5 mph94%30.01 "HgN/A
5:20 AM59 °FClear.3 mph94%29.98 "Hg10 mi
4:50 AM59 °FClear.6 mph94%29.98 "Hg10 mi
4:20 AM59 °FPassing clouds.8 mph88%29.98 "HgN/A
3:50 AM57 °FPassing clouds.3 mph94%30.01 "HgN/A
3:20 AM59 °FClear.1 mph94%29.98 "Hg10 mi
2:50 AM61 °FClear.6 mph88%29.98 "Hg10 mi
2:20 AM59 °FClear.5 mph94%29.98 "Hg10 mi
1:50 AM59 °FClear.3 mph94%30.01 "Hg10 mi
1:20 AM61 °FClear.3 mph88%30.01 "Hg10 mi
12:50 AM63 °FClear.3 mph83%30.01 "Hg10 mi
12:20 AM63 °FClear.6 mph83%30.01 "Hg10 mi
11:50 PM
Thu, Jun 30
61 °FClear.6 mph88%30.01 "Hg10 mi
11:20 PM63 °FClear.5 mph83%30.01 "Hg10 mi
10:50 PM64 °FClear.6 mph78%29.98 "Hg10 mi
10:20 PM66 °FSunny.7 mph73%29.98 "Hg10 mi
9:50 PM68 °FPartly sunny.7 mph69%29.98 "HgN/A
9:20 PM70 °FPartly sunny.7 mph64%29.98 "HgN/A
8:50 PM70 °FPartly sunny.9 mph64%29.98 "HgN/A
8:20 PM70 °FPartly sunny.7 mph64%29.98 "HgN/A
7:50 PM72 °FScattered clouds.7 mph65%29.95 "HgN/A
7:20 PM72 °FBroken clouds.8 mph61%29.95 "HgN/A
6:50 PM72 °FPartly sunny.8 mph61%29.95 "HgN/A
6:20 PM72 °FPartly sunny.10 mph61%29.95 "HgN/A
5:50 PM72 °FPartly sunny.12 mph61%29.95 "HgN/A
5:20 PM72 °FPartly sunny.14 mph61%29.95 "HgN/A
4:50 PM72 °FPartly sunny.14 mph61%29.95 "HgN/A
4:20 PM72 °FPartly sunny.14 mph61%29.95 "HgN/A
3:50 PM72 °FPartly sunny.14 mph57%29.98 "HgN/A
3:20 PM72 °FPartly sunny.14 mph57%29.98 "HgN/A
2:50 PM72 °FPartly sunny.13 mph57%29.98 "HgN/A
2:20 PM72 °FPartly sunny.14 mph57%29.95 "HgN/A
1:50 PM72 °FPartly sunny.9 mph61%29.95 "HgN/A
1:20 PM72 °FPartly sunny.10 mph61%29.98 "HgN/A
12:50 PM70 °FBroken clouds.12 mph64%29.98 "HgN/A
12:20 PM70 °FBroken clouds.9 mph60%29.98 "HgN/A
11:50 AM68 °FBroken clouds.9 mph69%29.98 "HgN/A
11:20 AM68 °FBroken clouds.8 mph73%29.98 "HgN/A
10:50 AM68 °FBroken clouds.5 mph78%29.95 "HgN/A
10:20 AM64 °FLight rain. Partly sunny.5 mph83%29.98 "HgN/A
Weather by CustomWeather, © 2016

See weather overviewHow to use our weather pages